Regional Weather Roundup
Issued by NWS

Home | Current Version | Previous Version | Text Only | Print | Product List | Glossary Off
Versions: 1 2 3 4 5 6 7 8 9 10 11 12 13 14 15 16 17 18 19 20 21 22 23 24 25 26 27 28 29 30 31 32 33 34 35 36 37 38 39 40 41 42 43 44 45 46 47 48 49 50

000
ASUS43 KLOT 281707
RWRIL

ILLINOIS REGIONAL WEATHER ROUNDUP
NATIONAL WEATHER SERVICE CHICAGO/ROMEOVILLE IL
1200 PM CDT FRI APR 28 2017

NOTE: "FAIR" INDICATES FEW OR NO CLOUDS BELOW 12,000 FEET WITH NO
SIGNIFICANT WEATHER AND/OR OBSTRUCTIONS TO VISIBILITY.

* THESE STATIONS ARE NOT UNDER NWS QUALITY CONTROL. THEY ALSO MAY NOT
  REPORT WEATHER SUCH AS PRECIPITATION OR FOG.

ILZ001-002-007-009-015-016-024-281800-
NORTHWEST ILLINOIS

CITY           SKY/WX    TMP DP  RH WIND       PRES   REMARKS
MOLINE         LGT RAIN  44  39  82 NE10      29.90F
STERLING*      LGT RAIN  47  41  80 E8        29.94R
SAVANNA*       LGT RAIN  45  36  70 NE6       29.95R
$$

ILZ003-004-008-010-011-017-018-281800-
NORTH CENTRAL ILLINOIS

CITY           SKY/WX    TMP DP  RH WIND       PRES   REMARKS
ROCKFORD       CLOUDY    50  37  61 SE3       29.96R
FREEPORT*      CLOUDY    45  36  71 NE5       29.96R
ROCHELLE*      CLOUDY    50  41  72 E5        29.93S
DE KALB*       CLOUDY    52  44  75 SE6       29.94S
PERU*          CLOUDY    50  43  74 E6        29.92S
$$

ILZ005-006-012>014-019>023-281800-
NORTHEAST ILLINOIS

CITY           SKY/WX    TMP DP  RH WIND       PRES   REMARKS
CHICAGO-OHARE  CLOUDY    58  45  62 S10       29.93F
CHICAGO-MIDWAY CLOUDY    58  47  66 S7        29.94F
AURORA         CLOUDY    54  46  74 SE5       29.94R
LANSING*       CLOUDY    55  49  80 S12       29.95S
JOLIET*        CLOUDY    55  49  80 SE6       29.95R
WAUKEGAN       CLOUDY    48  38  68 SE9       29.95R
DUPAGE AIRPORT CLOUDY    56  46  69 S8        29.93S
KANKAKEE*      LGT RAIN  56  47  74 SE12      29.95S
WHEELING       CLOUDY    55  43  63 S3        29.95S
MORRIS*        CLOUDY    54  47  80 CALM      29.93R
ROMEOVILLE*    CLOUDY    54  50  86 S8        29.95R
NORTHERLY ISL    N/A     48  41  76 E6          N/A
$$

LMZ740>746-281800-
SOUTHERN LAKE MICHIGAN

STATION/POSITION SKY/WX   TEMP    WIND        PRES    VSBY  WAVE
                          AIR SEA DIR/SP/G                  HT/PER
                          (F)     (DEG/KT/KT) (MB)    (MI)  (FT/S)
SOUTHERN BUOY              42 42  190/  2/  4 1015.1          1
HARRISON CRIB              47     100/  9/ 10   N/A
BURNHAM HARBOR             48      70/  4/  6   N/A
CALUMET HARBOR             47      50/  6/  7 1013.8F
BURNS HARBOR               57     180/ 13/ 16 1014.9F
MICHIGAN CITY              56     180/ 11/ 14   N/A
MICHIGAN CITY 6N           46 46                N/A           1
ST. JOSEPH                 48 48   30/  2/  4 1015.3          1
$$

ILZ025>027-034>036-040-047-049-050-058-095>099-281800-
WEST-CENTRAL ILLINOIS

CITY           SKY/WX    TMP DP  RH WIND       PRES   REMARKS
QUINCY         LGT RAIN  54  53  97 SE10      29.79F
GALESBURG*     DRIZZLE   48  45  89 NE9       29.86F
MACOMB*        RAIN      50  49  98 NE10      29.87S
JACKSONVILLE*  LGT RAIN  54  52  93 SE7       29.84S
PITTSFIELD*    RAIN      55  54  97 SE8       29.84R
$$

ILZ028>032-037-038-041>044-048-051>054-059>061-281800-
CENTRAL ILLINOIS

CITY           SKY/WX    TMP DP  RH WIND       PRES   REMARKS
PONTIAC        CLOUDY    55  51  86 SE8       29.91F
BLOOMINGTON    CLOUDY    54  48  80 SE20      29.89F
DECATUR        CLOUDY    56  53  90 SE17G23   29.89S
PEORIA         RAIN      53  51  93 SE6       29.89S FOG
LACON*         CLOUDY    54  50  86 E8        29.89F
LINCOLN*       CLOUDY    56  51  84 SE14      29.89R
SPRINGFIELD    CLOUDY    57  53  86 SE9       29.86F
TAYLORVILLE    CLOUDY    55  51  86 SE12      29.85F
$$

ILZ033-039-045-046-055>057-062-063-281800-
EAST-CENTRAL ILLINOIS

CITY           SKY/WX    TMP DP  RH WIND       PRES   REMARKS
CHAMPAIGN      CLOUDY    55  50  83 SE17      29.91F
RANTOUL*       CLOUDY    56  51  85 SE18      29.92S
MATTOON        LGT RAIN  52  50  93 SE14G24   29.90F
PARIS*         CLOUDY    53  50  90 SE14      29.94F
$$

ILZ079-100>102-281800-
SOUTHWEST ILLINOIS

CITY           SKY/WX    TMP DP  RH WIND       PRES   REMARKS
ALTON          TSTM      54  52  94 SE14      29.85S
BELLEVILLE     CLOUDY    58  58  99 NE10      29.83S
CAHOKIA*       CLOUDY    59  54  83 E7        29.83F
SPARTA*        CLOUDY    59  54  82 E7        29.85S HAZE
$$

ILZ064>066-069>071-074>076-080>082-084>086-088>090-092>094-281800-
SOUTH-CENTRAL ILLINOIS

CITY           SKY/WX    TMP DP  RH WIND       PRES   REMARKS
CARBONDALE     CLOUDY    63  57  81 SE10      29.84F
CAIRO*         CLOUDY    69  59  70 E8        29.82F
EFFINGHAM*     CLOUDY    54  53  97 NE6       29.90F
MARION         CLOUDY    64  59  82 SE12      29.85F
MT. VERNON     CLOUDY    59  53  80 E9        29.86F
CENTRALIA*     CLOUDY    58  54  85 SE9       29.87R
SALEM*         CLOUDY    58  52  82 E5        29.88R
METROPOLIS*    MOSUNNY   69  58  69 E6        29.86F
$$

ILZ067-068-072-073-078-083-087-091-281800-
SOUTHEAST ILLINOIS

CITY           SKY/WX    TMP DP  RH WIND       PRES   REMARKS
LAWRENCEVILLE  CLOUDY    58  52  80 E10       29.93F
FLORA*         CLOUDY    60  55  83 E13G18    29.88F
FAIRFIELD*     CLOUDY    60  54  80 E8        29.87F
HARRISBURG*    CLOUDY    60  55  82 E12       29.86F
ROBINSON*      CLOUDY    55  51  83 E12       29.94F
CARMI*         CLOUDY    61  55  81 E12       29.87F
$$

ABBREVIATIONS USED IN REMARKS
   TC - TEMPERATURE IN CELSIUS
  WCI - WIND CHILL INDEX
   HX - HEAT INDEX
  VSB - VISIBILITY
$$




USA.gov is the U.S. government's official web portal to all federal, state and local government web resources and services.